DW4604 Weather Reports


Display with metric or nautical units.
time (UTC)temp
F
wind
direction
speed
MPH
gust
MPH
rain 1hr
in
rain 24hr
in
rain mn
in
humidity
%
barometer
mb
20170624070504 72 254 2.0 10.0 0.00 0.60 0.00 64 1013.9
20170624070004 72 253 3.0 13.0 0.00 0.60 0.00 66 1013.9
20170624065504 71 247 4.0 13.0 0.00 0.60 0.00 66 1013.9
20170624065004 71 246 3.0 10.0 0.00 0.60 0.00 67 1014.0
20170624064505 71 245 3.0 9.0 0.00 0.60 0.00 68 1014.0
20170624064004 71 242 3.0 10.0 0.00 0.60 0.00 70 1014.0
20170624063504 71 247 4.0 10.0 0.00 0.60 0.00 70 1014.0
20170624063004 70 250 3.0 9.0 0.00 0.60 0.00 71 1014.0
20170624062504 70 242 2.0 9.0 0.00 0.60 0.00 72 1014.0
20170624062004 70 242 3.0 10.0 0.00 0.60 0.00 73 1014.0
20170624061504 69 243 4.0 11.0 0.00 0.60 0.00 73 1014.0
20170624061005 69 248 3.0 11.0 0.00 0.60 0.00 74 1014.0
20170624060504 69 253 2.0 7.0 0.00 0.60 0.00 74 1014.1
20170624060004 69 245 2.0 8.0 0.00 0.60 0.00 76 1014.0
20170624055504 69 240 2.0 8.0 0.00 0.60 0.00 77 1013.9
20170624055004 68 241 2.0 7.0 0.00 0.60 0.00 78 1013.9
20170624054505 68 244 2.0 6.0 0.00 0.60 0.00 80 1013.9
20170624054004 67 245 1.0 6.0 0.00 0.60 0.00 81 1013.9
20170624053504 67 237 1.0 5.0 0.00 0.60 0.00 84 1013.9
20170624053005 66 234 2.0 6.0 0.00 0.60 0.00 85 1013.9
20170624052505 66 236 3.0 6.0 0.00 0.60 0.00 86 1014.1
20170624052004 65 236 3.0 6.0 0.00 0.60 0.00 86 1014.1
20170624051504 65 236 2.0 6.0 0.00 0.60 0.00 88 1014.1
20170624051005 65 237 1.0 4.0 0.00 0.60 0.00 90 1014.1
20170624050505 64 235 1.0 4.0 0.00 0.60 0.00 91 1014.1
20170624050004 64 234 1.0 3.0 0.00 0.60 0.00 91 1014.1
20170624045504 64 231 0.0 2.0 0.00 0.60 0.00 92 1014.0
20170624045004 63 240 0.0 1.0 0.00 0.60 0.00 93 1014.0
20170624044505 63 241 0.0 1.0 0.00 0.60 0.00 93 1014.0
20170624044005 62 294 0.0 1.0 0.00 0.60 0.00 94 1014.0
20170624043505 62 294 0.0 1.0 0.00 0.60 0.00 95 1014.1
20170624043005 62 0 0.0 0.0 0.00 0.60 0.00 95 1014.0
20170624042505 62 0 0.0 0.0 0.00 0.60 0.00 96 1014.0
20170624042004 62 0 0.0 0.0 0.00 0.60 0.00 96 1014.1
20170624041505 61 0 0.0 0.0 0.00 0.60 0.00 96 1014.0
20170624041005 61 0 0.0 0.0 0.00 0.60 0.00 96 1014.0
20170624040505 61 0 0.0 0.0 0.00 0.60 0.00 96 1014.0
20170624040005 61 0 0.0 0.0 0.00 0.60 0.00 97 1014.1
20170624035504 61 0 0.0 0.0 0.00 0.60 0.00 96 1014.0
20170624035004 60 0 0.0 0.0 0.00 0.60 0.00 96 1013.9
20170624034504 60 0 0.0 0.0 0.00 0.60 0.00 97 1013.9
20170624034005 60 0 0.0 0.0 0.00 0.60 0.00 97 1014.1
20170624033505 60 0 0.0 0.0 0.00 0.60 0.00 97 1014.0
20170624033005 60 0 0.0 0.0 0.00 0.60 0.00 97 1014.0
20170624032505 60 0 0.0 0.0 0.00 0.60 0.00 97 1013.9
20170624032005 60 0 0.0 0.0 0.00 0.60 0.00 97 1014.0
20170624031505 60 0 0.0 0.0 0.00 0.60 0.00 97 1013.8
20170624031004 60 0 0.0 0.0 0.00 0.61 0.00 97 1013.7
20170624030504 60 0 0.0 0.0 0.00 0.61 0.00 97 1013.9
20170624030005 60 0 0.0 0.0 0.00 0.61 0.00 97 1013.9
20170624025505 60 0 0.0 0.0 0.00 0.61 0.00 97 1013.8
20170624025005 60 0 0.0 0.0 0.00 0.61 0.00 97 1013.8
20170624024505 60 0 0.0 0.0 0.00 0.61 0.00 97 1013.7
20170624024005 60 0 0.0 0.0 0.00 0.61 0.00 97 1013.7
20170624023505 60 0 0.0 0.0 0.00 0.61 0.00 97 1013.7
20170624023005 60 0 0.0 0.0 0.00 0.62 0.00 97 1013.7
20170624022505 60 0 0.0 0.0 0.00 0.62 0.00 97 1013.7
20170624022005 60 0 0.0 0.0 0.00 0.62 0.00 97 1013.7
20170624021505 59 0 0.0 0.0 0.00 0.62 0.00 97 1013.8
20170624021005 60 0 0.0 0.0 0.00 0.62 0.00 97 1013.9
20170624020505 59 0 0.0 0.0 0.00 0.62 0.00 97 1013.9
20170624020005 60 0 0.0 0.0 0.00 0.62 0.00 97 1013.8
20170624015505 60 0 0.0 0.0 0.00 0.62 0.00 97 1013.8
20170624015005 60 0 0.0 0.0 0.00 0.62 0.00 97 1013.8
20170624014505 60 0 0.0 0.0 0.00 0.62 0.00 97 1013.8
20170624014005 60 0 0.0 0.0 0.00 0.62 0.00 97 1013.9
20170624013505 60 0 0.0 0.0 0.00 0.62 0.00 97 1013.9
20170624013005 60 0 0.0 0.0 0.00 0.62 0.00 97 1013.9
20170624012506 60 0 0.0 0.0 0.00 0.62 0.00 97 1013.9
20170624012005 60 0 0.0 0.0 0.00 0.62 0.00 97 1013.9
20170624011505 60 0 0.0 0.0 0.00 0.62 0.00 97 1013.9
20170624011005 60 0 0.0 0.0 0.00 0.62 0.00 97 1013.9
20170624010505 60 0 0.0 0.0 0.00 0.62 0.00 97 1013.9
20170624010005 60 0 0.0 0.0 0.00 0.62 0.00 97 1014.0
20170624005505 60 0 0.0 0.0 0.00 0.63 0.00 97 1013.9
20170624005005 60 0 0.0 0.0 0.00 0.64 0.00 97 1014.1
20170624004505 60 0 0.0 0.0 0.00 0.65 0.00 97 1014.0
20170624004006 60 294 0.0 1.0 0.00 0.65 0.00 97 1013.9
20170624003506 60 295 0.0 1.0 0.00 0.65 0.00 97 1013.9
20170624003005 59 294 0.0 1.0 0.00 0.65 0.00 97 1013.9
20170624002505 59 0 0.0 0.0 0.00 0.66 0.00 97 1013.9
20170624002005 59 0 0.0 0.0 0.00 0.69 0.00 97 1013.9
20170624001505 59 0 0.0 0.0 0.00 0.69 0.00 97 1013.8
20170624001005 59 0 0.0 0.0 0.00 0.69 0.00 97 1013.9
20170624000506 59 0 0.0 0.0 0.00 0.69 0.00 97 1013.8
20170624000006 59 0 0.0 0.0 0.00 0.69 0.00 97 1013.8
20170623235505 59 0 0.0 0.0 0.00 0.69 0.00 97 1013.8
20170623235005 59 0 0.0 0.0 0.00 0.69 0.00 97 1013.9
20170623234505 59 0 0.0 0.0 0.00 0.69 0.00 97 1013.9
20170623234005 59 0 0.0 0.0 0.00 0.69 0.00 97 1013.9
20170623233505 59 0 0.0 0.0 0.00 0.69 0.00 97 1013.9
20170623233006 60 0 0.0 0.0 0.00 0.69 0.00 97 1013.9
20170623232506 60 0 0.0 0.0 0.00 0.69 0.00 97 1013.9
20170623231014 60 0 0.0 0.0 0.00 0.69 0.00 96 1013.9
20170623225506 60 0 0.0 0.0 0.00 0.69 0.00 96 1013.8
20170623225006 60 0 0.0 0.0 0.00 0.69 0.00 96 1013.8
20170623224506 60 0 0.0 0.0 0.00 0.69 0.00 96 1013.8
20170623224006 60 0 0.0 0.0 0.00 0.69 0.00 96 1013.8
20170623223506 60 0 0.0 0.0 0.00 0.69 0.00 96 1013.8
20170623223006 60 0 0.0 0.0 0.00 0.69 0.00 96 1013.9
20170623222506 60 283 0.0 1.0 0.00 0.69 0.00 96 1013.9
20170623222006 60 283 0.0 1.0 0.00 0.69 0.00 96 1013.8
20170623221505 60 283 0.0 1.0 0.00 0.69 0.00 96 1013.8
20170623221005 61 283 0.0 1.0 0.00 0.69 0.00 96 1013.6
20170623220505 61 0 0.0 0.0 0.00 0.69 0.00 96 1013.6
20170623220006 61 0 0.0 0.0 0.00 0.69 0.00 96 1013.6
20170623215506 61 0 0.0 0.0 0.00 0.69 0.69 96 1013.6
20170623215006 61 0 0.0 0.0 0.00 0.69 0.69 96 1013.6
20170623214506 61 0 0.0 0.0 0.00 0.69 0.69 96 1013.6
20170623214006 61 0 0.0 0.0 0.00 0.69 0.69 96 1013.7
20170623213506 61 0 0.0 0.0 0.00 0.69 0.69 96 1013.6
20170623213006 61 0 0.0 0.0 0.00 0.69 0.69 96 1013.6
20170623212506 61 0 0.0 0.0 0.00 0.69 0.69 95 1013.6
20170623212006 61 0 0.0 0.0 0.00 0.69 0.69 95 1013.7
20170623211506 61 0 0.0 0.0 0.00 0.69 0.69 95 1013.5
20170623211006 61 0 0.0 0.0 0.00 0.69 0.69 95 1013.6
20170623210506 61 0 0.0 0.0 0.00 0.69 0.69 95 1013.5
20170623210006 61 0 0.0 0.0 0.00 0.69 0.69 95 1013.6
20170623205506 61 0 0.0 0.0 0.00 0.69 0.69 95 1013.6
20170623205006 61 0 0.0 0.0 0.00 0.69 0.69 95 1013.5
20170623204506 61 0 0.0 0.0 0.00 0.69 0.69 95 1013.6
20170623204006 62 0 0.0 0.0 0.00 0.69 0.69 94 1013.4
20170623203506 62 0 0.0 0.0 0.00 0.69 0.69 94 1013.5
20170623203007 62 0 0.0 0.0 0.00 0.69 0.69 94 1013.4
20170623202506 62 0 0.0 0.0 0.00 0.69 0.69 94 1013.3
20170623202006 62 0 0.0 0.0 0.00 0.69 0.69 94 1013.4
20170623201506 62 0 0.0 0.0 0.00 0.69 0.69 94 1013.3
20170623201006 62 0 0.0 0.0 0.00 0.69 0.69 94 1013.2
20170623200506 62 0 0.0 0.0 0.00 0.69 0.69 94 1013.1
20170623200006 62 0 0.0 0.0 0.00 0.69 0.69 93 1013.1
20170623195506 62 0 0.0 0.0 0.00 0.69 0.69 93 1013.0
20170623195006 63 0 0.0 0.0 0.00 0.69 0.69 93 1013.1
20170623194506 63 0 0.0 0.0 0.00 0.69 0.69 92 1013.0
20170623194007 63 0 0.0 0.0 0.00 0.69 0.69 92 1013.0
20170623193507 63 0 0.0 0.0 0.00 0.69 0.69 92 1012.8
20170623193007 63 0 0.0 0.0 0.00 0.69 0.69 91 1012.7
20170623192506 64 293 0.0 1.0 0.00 0.69 0.69 90 1012.6
20170623192006 64 304 0.0 1.0 0.00 0.69 0.69 90 1012.4
20170623191506 64 307 0.0 3.0 0.00 0.69 0.69 90 1012.5
20170623191006 64 301 0.0 3.0 0.00 0.69 0.69 90 1012.4
20170623190506 64 328 0.0 2.0 0.00 0.69 0.69 90 1012.3
20170623190006 64 325 1.0 4.0 0.00 0.69 0.69 89 1012.2
20170623185506 65 315 1.0 4.0 0.00 0.69 0.69 89 1012.3
20170623185007 65 313 1.0 3.0 0.00 0.69 0.69 88 1012.2
20170623184507 65 318 1.0 3.0 0.00 0.69 0.69 88 1012.2
20170623184007 65 317 1.0 5.0 0.00 0.69 0.69 88 1012.2
20170623183507 65 313 1.0 6.0 0.00 0.69 0.69 88 1012.2
20170623183006 65 313 1.0 6.0 0.00 0.69 0.69 88 1012.2
20170623182506 65 313 1.0 3.0 0.00 0.69 0.69 88 1012.2
20170623182006 65 314 1.0 4.0 0.00 0.69 0.69 88 1012.2
20170623181506 66 316 1.0 4.0 0.00 0.69 0.69 88 1012.2
20170623181007 66 314 1.0 5.0 0.00 0.69 0.69 88 1012.1
20170623180507 66 310 1.0 5.0 0.00 0.69 0.69 87 1012.1
20170623180007 66 314 1.0 5.0 0.00 0.69 0.69 87 1012.1
20170623175508 66 316 2.0 7.0 0.00 0.69 0.69 87 1012.0
20170623175007 66 316 2.0 7.0 0.00 0.69 0.69 87 1012.1
20170623174507 66 312 1.0 6.0 0.00 0.69 0.69 87 1012.0
20170623174006 66 310 2.0 7.0 0.00 0.69 0.69 86 1012.0
20170623173506 66 312 2.0 7.0 0.00 0.69 0.69 87 1012.0
20170623173007 66 313 2.0 8.0 0.00 0.69 0.69 87 1011.9
20170623172507 66 314 3.0 9.0 0.00 0.69 0.69 87 1011.9
20170623172007 67 312 2.0 9.0 0.00 0.69 0.69 88 1011.9
20170623171507 66 311 2.0 9.0 0.00 0.69 0.69 87 1011.9
20170623171007 67 314 1.0 5.0 0.00 0.69 0.69 87 1011.9
20170623170507 67 315 1.0 5.0 0.00 0.69 0.69 88 1011.9
20170623170007 67 323 2.0 6.0 0.00 0.69 0.69 88 1011.8
20170623165507 67 327 2.0 6.0 0.00 0.69 0.69 87 1011.7
20170623165007 67 322 1.0 6.0 0.00 0.69 0.69 87 1011.7
20170623164507 67 315 2.0 6.0 0.00 0.69 0.69 87 1011.6
20170623164007 67 322 3.0 10.0 0.00 0.69 0.69 87 1011.6
20170623163507 67 326 3.0 10.0 0.00 0.69 0.69 86 1011.5
20170623163007 68 321 3.0 7.0 0.00 0.69 0.69 86 1011.4
20170623162506 68 316 3.0 7.0 0.00 0.69 0.69 85 1011.4
20170623162007 68 310 4.0 11.0 0.00 0.69 0.69 85 1011.4
20170623161507 68 320 4.0 11.0 0.00 0.69 0.69 84 1011.3
20170623161007 68 323 3.0 10.0 0.00 0.69 0.69 84 1011.2
20170623160507 68 315 2.0 7.0 0.00 0.69 0.69 86 1011.2
20170623160007 67 315 3.0 6.0 0.00 0.69 0.69 87 1011.3
20170623155507 67 319 4.0 8.0 0.00 0.69 0.69 88 1011.2
20170623155007 67 323 3.0 8.0 0.00 0.69 0.69 89 1011.2
20170623154507 66 317 3.0 7.0 0.00 0.69 0.69 90 1011.2
20170623154008 66 312 3.0 8.0 0.00 0.69 0.69 89 1011.3
20170623153507 66 311 4.0 9.0 0.00 0.69 0.69 89 1011.3
20170623153007 66 314 3.0 9.0 0.00 0.69 0.69 89 1011.3
20170623152507 66 313 3.0 8.0 0.00 0.69 0.69 90 1011.3
20170623152007 66 318 3.0 9.0 0.00 0.69 0.69 90 1011.2
20170623151507 66 319 3.0 9.0 0.00 0.69 0.69 90 1011.3
20170623151008 66 316 4.0 9.0 0.00 0.69 0.69 91 1011.3
20170623150507 65 314 4.0 15.0 0.00 0.69 0.69 90 1011.2
20170623150007 65 311 4.0 15.0 0.00 0.69 0.69 91 1011.2
20170623145507 65 310 4.0 12.0 0.00 0.69 0.69 92 1011.1
20170623145007 65 313 4.0 14.0 0.00 0.69 0.69 91 1011.0
20170623144508 65 311 4.0 14.0 0.00 0.69 0.69 92 1011.1
20170623144007 65 310 4.0 12.0 0.00 0.69 0.69 93 1011.1
20170623143507 64 315 4.0 12.0 0.00 0.69 0.69 93 1011.2
20170623143007 64 316 4.0 14.0 0.00 0.69 0.69 93 1011.2
20170623142507 64 313 5.0 14.0 0.00 0.69 0.69 93 1011.1
20170623142008 64 314 7.0 19.0 0.01 0.69 0.69 92 1011.1
20170623141507 65 316 5.0 19.0 0.02 0.69 0.69 90 1011.2
20170623141008 65 313 3.0 10.0 0.02 0.69 0.69 91 1011.0
20170623140507 65 314 4.0 9.0 0.02 0.69 0.69 92 1011.0
20170623140008 65 313 3.0 9.0 0.02 0.69 0.69 92 1011.0
20170623135507 65 309 2.0 9.0 0.02 0.69 0.69 93 1011.0
20170623135007 65 310 3.0 10.0 0.02 0.69 0.69 93 1011.0
20170623134507 64 310 4.0 16.0 0.02 0.69 0.69 93 1010.9
20170623134008 64 309 4.0 16.0 0.02 0.69 0.69 94 1010.8
20170623133508 64 312 4.0 13.0 0.02 0.69 0.69 94 1010.8
20170623133007 64 313 4.0 13.0 0.02 0.69 0.69 94 1010.8
20170623132507 64 309 4.0 10.0 0.02 0.69 0.69 93 1010.8
20170623132008 64 314 4.0 11.0 0.02 0.68 0.68 92 1010.8
20170623131508 64 321 4.0 14.0 0.04 0.67 0.67 91 1010.6
20170623131008 65 316 5.0 16.0 0.04 0.66 0.66 90 1010.6
20170623130507 65 304 5.0 16.0 0.06 0.66 0.66 90 1010.5
20170623130008 65 302 5.0 18.0 0.11 0.66 0.66 89 1010.4
20170623125508 65 309 5.0 18.0 0.15 0.66 0.66 90 1010.3
20170623125008 65 313 4.0 12.0 0.17 0.66 0.66 93 1010.3
20170623124507 65 310 4.0 10.0 0.17 0.66 0.66 94 1010.1
20170623124007 64 314 5.0 10.0 0.17 0.66 0.66 94 1010.0
20170623123508 64 319 6.0 12.0 0.17 0.66 0.66 93 1010.2
20170623123008 63 324 6.0 12.0 0.17 0.66 0.66 93 1010.2
20170623122508 64 331 5.0 12.0 0.17 0.66 0.66 92 1010.1
20170623122007 64 335 4.0 12.0 0.17 0.65 0.65 92 1009.8
20170623121508 64 332 4.0 10.0 0.14 0.63 0.63 91 1009.7
20170623121008 65 327 5.0 12.0 0.13 0.62 0.62 90 1009.7
20170623120508 66 322 4.0 12.0 0.12 0.61 0.61 88 1009.7
20170623120008 67 318 3.0 7.0 0.06 0.55 0.55 88 1009.6
20170623115508 67 321 3.0 10.0 0.02 0.51 0.51 87 1009.4
20170623115008 68 317 3.0 10.0 0.01 0.50 0.50 85 1009.4
20170623114508 68 314 4.0 10.0 0.00 0.49 0.49 84 1009.2
20170623114008 69 314 4.0 11.0 0.00 0.49 0.49 82 1009.1
20170623113507 69 315 4.0 11.0 0.00 0.49 0.49 84 1009.1
20170623113008 69 315 3.0 9.0 0.00 0.49 0.49 84 1009.1
20170623112508 69 312 3.0 7.0 0.00 0.49 0.49 85 1009.1
20170623112008 69 312 3.0 8.0 0.00 0.49 0.49 85 1009.0
20170623111508 69 313 3.0 9.0 0.00 0.49 0.49 85 1009.0
20170623111008 69 313 3.0 9.0 0.00 0.49 0.49 87 1009.1
20170623110508 69 312 2.0 8.0 0.01 0.49 0.49 89 1009.1
20170623110008 68 312 2.0 8.0 0.18 0.49 0.49 91 1009.1
20170623105508 67 312 3.0 8.0 0.40 0.49 0.49 92 1009.0
20170623105008 67 312 3.0 9.0 0.40 0.49 0.49 92 1009.0
20170623104507 66 310 2.0 9.0 0.40 0.49 0.49 93 1008.9
20170623104008 66 307 2.0 7.0 0.40 0.49 0.49 94 1008.9
20170623103508 65 311 3.0 7.0 0.40 0.49 0.49 93 1008.9
20170623103008 65 314 3.0 7.0 0.40 0.49 0.49 93 1008.9
20170623102509 65 317 4.0 9.0 0.40 0.49 0.49 93 1008.8
20170623102008 64 325 4.0 9.0 0.40 0.49 0.49 92 1008.7
20170623101508 64 327 4.0 9.0 0.40 0.49 0.49 91 1008.8
20170623101008 65 315 6.0 15.0 0.40 0.49 0.49 89 1008.8
20170623100508 67 310 8.0 19.0 0.39 0.48 0.48 85 1008.9
20170623100008 71 313 7.0 19.0 0.15 0.24 0.24 75 1009.3
20170623094508 78 304 4.0 13.0 0.00 0.09 0.09 59 1007.4
20170623094009 78 299 5.0 13.0 0.00 0.09 0.09 60 1007.5
20170623093509 77 303 5.0 11.0 0.00 0.09 0.09 60 1007.4
20170623093008 76 308 5.0 14.0 0.00 0.09 0.09 63 1007.4
20170623092508 76 308 6.0 14.0 0.00 0.09 0.09 64 1007.3
20170623092008 75 314 6.0 16.0 0.00 0.09 0.09 64 1007.4
20170623091509 75 314 6.0 16.0 0.00 0.09 0.09 65 1007.4
20170623091009 74 307 6.0 15.0 0.00 0.09 0.09 67 1007.5
20170623090509 75 312 6.0 18.0 0.00 0.09 0.09 66 1007.6
20170623090009 75 310 5.0 18.0 0.00 0.09 0.09 68 1007.6
20170623085509 74 300 6.0 17.0 0.00 0.09 0.09 68 1007.7
20170623085009 74 301 6.0 17.0 0.00 0.09 0.09 67 1007.6
20170623084508 74 311 5.0 13.0 0.00 0.09 0.09 68 1007.7
20170623084008 74 313 5.0 13.0 0.00 0.09 0.09 68 1007.7
20170623083509 73 305 6.0 18.0 0.00 0.09 0.09 69 1007.7
20170623083008 73 302 6.0 19.0 0.00 0.09 0.09 69 1007.7
20170623082508 73 303 6.0 19.0 0.00 0.09 0.09 70 1007.8
20170623082009 73 300 7.0 17.0 0.00 0.09 0.09 70 1007.8
20170623081509 73 295 8.0 19.0 0.00 0.09 0.09 71 1007.9
20170623081009 73 298 6.0 21.0 0.00 0.09 0.09 71 1007.9
20170623080508 73 297 5.0 21.0 0.00 0.09 0.09 71 1007.7
20170623080009 73 291 5.0 13.0 0.00 0.09 0.09 72 1007.7
20170623075509 72 293 5.0 13.0 0.00 0.09 0.09 72 1007.7
20170623075008 72 291 5.0 14.0 0.00 0.09 0.09 72 1007.8
20170623074508 72 280 5.0 14.0 0.00 0.09 0.09 74 1007.8
20170623074009 72 262 5.0 14.0 0.00 0.09 0.09 73 1007.8
20170623073509 72 263 5.0 14.0 0.00 0.09 0.09 73 1007.8
20170623073008 72 271 5.0 15.0 0.00 0.09 0.09 73 1007.8
20170623072510 72 259 5.0 17.0 0.00 0.09 0.09 73 1007.6
20170623072009 72 265 5.0 17.0 0.00 0.09 0.09 72 1007.7
20170623071509 72 280 5.0 12.0 0.00 0.09 0.09 71 1007.7
20170623071008 72 269 4.0 12.0 0.00 0.09 0.09 73 1007.6